Tegucigalpa, Honduras

11:06 AM CST en Octubre 21, 2018 (GMT -0600)
Toncontin International

Tiempo Historia de MHTG - Octubre, 2018

Change the Weather History Date:

Jueves, Octubre 11, 2018

  Actual Average Record
Temperature  
Temperatura media 74 ° F -  
Temperatura máxima 85 ° F 78 ° F 86 ° F (2003)
Temperatura mínima 64 ° F 61 ° F 59 ° F (2001)
Cooling Degree Days 10    
Growing Degree Days 24 (Base 50)    
Moisture  
Punto de rocío 63 ° F    
Average Humidity 77    
Maximum Humidity 100    
Minimum Humidity 36    
Precipitación  
Precipitación 0.47 pul 0.11 pul - ()
Presión al nivel del mar  
Presión al nivel del mar 30.03 pul    
Viento  
Velocidad del viento 3 mph ()    
Velocidad máxima del viento 16 mph    
Max Gust Speed -    
Visibilidad 5.5 Millas    
Eventos Lluvia , Tormenta    
Averages and records for this station are not official NWS values.
T = Trace of Precipitation, MM = Missing Value Source: Averaged Metar Reports

Daily Weather History Graph

Daily Weather History Graph

Search for Another Location

Airport or City:

Astronomía

Oct. 11, 2018 Salida Puesta
Hora real 5:39 AM CST 5:31 PM CST
Crepúsculo civil 5:17 AM CST 5:53 PM CST
Crepúsculo náutico 4:53 AM CST 6:17 PM CST
Crepúsculo astronómico 4:28 AM CST 6:42 PM CST
Luna 7:53 AM CST (10/11) 7:48 PM CST (10/11)
Horas de luz 12h 35m
Horas de luz
11h 52m
Creciente, 8% of the Moon is Illuminated
Oct 11
Creciente
Oct 16
Cuarto creciente
Oct 24
Luna llena
Oct 31
Cuarto menguante
Nov 7
Nueva

Hourly Weather History & Observations

Hora (CST) Temp. Índice de calor Punto de rocío Humedad Presión Visibilidad Wind Dir Velocidad del viento Velocidad de ráfagas Precip Eventos Condiciones
12:00 AM 67 ° F - 65 ° F 90% 30.00 pul 6 mi Sin viento Sin viento - -   Bruma
12:00 AM 68.0 ° F - 64.4 ° F 88% 30.09 pul 6.2 mi Sin viento Sin viento - N/A   Parcialmente nublado
2:00 AM 66.2 ° F - 64.4 ° F 94% 30.04 pul 6.2 mi Sin viento Sin viento - N/A   Nubes dispersas
3:00 AM 66 ° F - 63 ° F 88% 29.96 pul 6 mi Sin viento Sin viento - -   Bruma
3:00 AM 66.2 ° F - 62.6 ° F 88% 30.04 pul 6.2 mi Sin viento Sin viento - N/A   Muy nublado
4:00 AM 66.2 ° F - 62.6 ° F 88% 30.04 pul 6.2 mi Sin viento Sin viento - N/A   Nubes dispersas
5:00 AM 64.4 ° F - 64.4 ° F 100% 30.04 pul 6.2 mi Sin viento Sin viento - N/A   Nubes dispersas
6:00 AM 65 ° F - 61 ° F 84% 29.99 pul 6 mi OSO 6.9 mph - -   Bruma
6:00 AM 64.4 ° F - 60.8 ° F 88% 30.06 pul 6.2 mi OSO 6.9 mph - N/A   Muy nublado
7:00 AM 66.2 ° F - 64.4 ° F 94% 30.06 pul 6.2 mi Sin viento Sin viento - N/A   Muy nublado
8:00 AM 71.6 ° F - 66.2 ° F 83% 30.09 pul 6.2 mi Sin viento Sin viento - N/A   Muy nublado
9:00 AM 75 ° F - 67 ° F 68% 29.94 pul 7 mi OSO 4.6 mph - -   Bruma
9:00 AM 75.2 ° F - 66.2 ° F 73% 30.09 pul 6.2 mi OSO 4.6 mph - N/A   Muy nublado
10:00 AM 78.8 ° F - 66.2 ° F 65% 30.06 pul 6.2 mi NNE 4.6 mph - N/A   Parcialmente nublado
11:00 AM 84.2 ° F 86.6 ° F 66.2 ° F 55% 30.04 pul 6.2 mi Norte 6.9 mph - N/A   Muy nublado
12:00 PM 86 ° F - 63 ° F 36% 29.81 pul 7 mi OSO 6.9 mph - -   Bruma
12:00 PM 86.0 ° F 86.6 ° F 62.6 ° F 45% 30.01 pul 6.2 mi OSO 6.9 mph - N/A   Muy nublado
12:06 PM 82.4 ° F 82.5 ° F 59.0 ° F 45% 30.01 pul 5.0 mi Sur 4.6 mph - N/A Tormenta Tormenta
1:00 PM 80.6 ° F 82.3 ° F 64.4 ° F 58% 30.01 pul 3.1 mi NNO 6.9 mph - N/A Tormenta Tormenta
1:10 PM 82.4 ° F 85.4 ° F 68.0 ° F 62% 30.01 pul 6.2 mi OSO 11.5 mph - N/A Tormenta Tormenta
2:00 PM 78.8 ° F - 66.2 ° F 65% 29.98 pul 4.3 mi OSO 16.1 mph - N/A Tormenta Tormenta
3:00 PM 74 ° F - 60 ° F 51% 29.86 pul 3 mi NNO 16.1 mph - - Tormenta Tormenta
3:00 PM 75.2 ° F - 59.0 ° F 57% 30.01 pul 3.1 mi NNO 16.1 mph - N/A Tormenta Tormenta
4:00 PM 71.6 ° F - 64.4 ° F 78% 30.01 pul 5.0 mi SO 4.6 mph - N/A Tormenta Tormenta
5:00 PM 69.8 ° F - 62.6 ° F 78% 30.04 pul 4.3 mi Este 6.9 mph - N/A Lluvia , Tormenta Tormenta débil
6:00 PM 66 ° F - 64 ° F 89% 29.96 pul 4 mi SE 4.6 mph - - Lluvia , Tormenta Tormenta
6:00 PM 66.2 ° F - 62.6 ° F 88% 30.04 pul 3.7 mi SE 4.6 mph - N/A Lluvia , Tormenta Tormenta débil
7:00 PM 64.4 ° F - 62.6 ° F 94% 30.06 pul 5.0 mi Sin viento Sin viento - N/A   Parcialmente nublado
8:00 PM 64.4 ° F - 60.8 ° F 88% 30.09 pul 6.2 mi Sin viento Sin viento - N/A   Nubes dispersas
9:00 PM 64 ° F - 62 ° F 90% 30.06 pul 6 mi Sin viento Sin viento - -   Muy nublado
9:00 PM 64.4 ° F - 62.6 ° F 94% 30.12 pul 6.2 mi Sin viento Sin viento - N/A   Nubes dispersas
10:00 PM 64.4 ° F - 62.6 ° F 94% 30.12 pul 4.3 mi Sur 4.6 mph - N/A   Nubes dispersas
11:00 PM 64.4 ° F - 60.8 ° F 88% 30.12 pul 4.3 mi Sin viento Sin viento - N/A   Nubes dispersas